Location: Mladá Boleslav
(50.4134°N, 14.9084°E)
Time: 12:13:04
(UTC+02:00)

KKS-1 - Pass Details

Date: 29 May 2024
Orbit: 626 x 640 km, 98.1° (Epoch: 16 June)

Event Time Altitude Azimuth Distance (km) Brightness Sun altitude
Rises 23:35:54 0° 23° (NNE) 2,939 ? -15.5°
Reaches altitude 10° 23:38:24 10° 35° (NE) 2,023 ? -15.7°
Maximum altitude 23:42:10 27° 94° (E) 1,206 ? -15.9°
Enters shadow 23:43:38 23° 127° (SE) 1,357 ? -15.9°
